Home > Weather > Yokohama > Past weeks

Flag for Japan Past Weather in Yokohama, Japan — Yesterday and Last 2 Weeks

Now
64 °F

Partly cloudy.


Feels Like: 64 °F
Forecast: 61 / 74 °F
Wind: 10 mph from East

Location: Tokyo International Airport

Current Time: May 27, 2016 at 7:34:37 PM

Latest Report: May 27, 2016 at 7:00 PM


Visibility: N/A

Pressure: 29.83 "Hg

Humidity: 88%

Dew Point: 61 °F

Location of YokohamaLocation

Past Weather in Yokohama — Graph

°F

Yokohama Temperature Yesterday

Maximum temperature yesterday: 77 °F (at 1:30 PM)
Minimum temperature yesterday: 70 °F (at 12:00 AM)
Average temperature yesterday: 73 °F

High & Low Weather Summary for the Past Weeks

 TemperatureHumidityPressure
High84 °F (May 23, 1:00 PM)100% (May 13, 5:00 AM)30.27 "Hg (May 13, 5:00 AM)
Low57 °F (May 15, 1:30 AM)31% (May 23, 3:00 PM)29.71 "Hg (May 27, 2:30 AM)
Average69 °F71%30.00 "Hg
* Reported May 12 6:00 PM — May 27 6:30 PM, Yokohama, Weather by CustomWeather, © 2016

Note: Actual official high and low records may vary slightly from our data, if they occured in-between our weather recording intervals... More about our weather records

Advertising

Yokohama Weather History for the Previous 24 Hours

Scroll right to see more
 ConditionsComfort  
Time TempWeatherWind HumidityBarometerVisibility
6:30 PM
Fri, May 27
66 °FBroken clouds.10 mph83%29.83 "HgN/A
6:00 PM66 °FBroken clouds.12 mph83%29.80 "HgN/A
5:30 PM66 °FBroken clouds.12 mph83%29.80 "HgN/A
5:00 PM66 °FPartly sunny.14 mph88%29.80 "HgN/A
4:30 PM66 °FPartly sunny.15 mph83%29.77 "HgN/A
4:00 PM66 °FPartly sunny.16 mph83%29.77 "HgN/A
3:30 PM66 °FPartly sunny.17 mph88%29.77 "HgN/A
3:00 PM66 °FSprinkles. Broken clouds.18 mph88%29.77 "HgN/A
2:30 PM64 °FSprinkles. Broken clouds.21 mph94%29.77 "HgN/A
2:00 PM66 °FSprinkles. Broken clouds.24 mph83%29.80 "HgN/A
1:30 PM66 °FSprinkles. Partly sunny.25 mph83%29.80 "HgN/A
1:00 PM66 °FSprinkles. Broken clouds.24 mph88%29.80 "HgN/A
12:30 PM66 °FBroken clouds.23 mph94%29.80 "HgN/A
12:00 PM66 °FSprinkles. Broken clouds.22 mph88%29.80 "HgN/A
11:30 AM66 °FSprinkles. Partly sunny.18 mph94%29.80 "HgN/A
11:00 AM66 °FSprinkles. Partly sunny.23 mph94%29.77 "Hg4 mi
10:30 AM66 °FSprinkles. Broken clouds.28 mph94%29.77 "Hg4 mi
10:00 AM70 °FRain showers. Fog.15 mph100%29.74 "Hg3 mi
9:30 AM70 °FMild.15 mph100%29.74 "Hg1 mi
9:00 AM72 °FRain showers. Fog.6 mph100%29.74 "Hg1 mi
8:30 AM72 °FRain showers. Fog.6 mph100%29.74 "Hg1 mi
8:00 AM70 °FRain showers. Fog.2 mph100%29.71 "Hg1 mi
7:30 AM70 °FRain showers. Fog.1 mph100%29.71 "Hg1 mi
7:00 AM70 °FRain showers. Fog.1 mph100%29.71 "Hg1 mi
6:30 AM70 °FMild.5 mph100%29.71 "Hg1 mi
6:00 AM72 °FRain showers. Fog.6 mph94%29.71 "Hg1 mi
5:49 AM72 °FRain showers. Fog.7 mph94%29.71 "Hg1 mi
5:30 AM72 °FSprinkles. Fog.8 mph94%29.71 "Hg3 mi
5:00 AM72 °FSprinkles. Fog.9 mph94%29.71 "Hg3 mi
4:30 AM72 °FRain showers. Fog.12 mph94%29.71 "Hg3 mi
4:00 AM72 °FSprinkles. Partly cloudy.10 mph88%29.71 "Hg4 mi
3:30 AM72 °FSprinkles. Passing clouds.15 mph88%29.71 "HgN/A
3:00 AM72 °FSprinkles. Partly cloudy.16 mph88%29.71 "HgN/A
2:30 AM72 °FPassing clouds.17 mph88%29.71 "HgN/A
2:00 AM72 °FSprinkles. Partly cloudy.20 mph88%29.74 "HgN/A
1:30 AM72 °FPartly cloudy.18 mph88%29.74 "HgN/A
1:00 AM72 °FSprinkles. Partly cloudy.17 mph88%29.74 "HgN/A
12:30 AM72 °FPartly cloudy.18 mph88%29.74 "HgN/A
12:00 AM72 °FPartly cloudy.18 mph88%29.77 "HgN/A
11:30 PM
Thu, May 26
72 °FPassing clouds.16 mph94%29.77 "HgN/A
11:00 PM72 °FPartly cloudy.21 mph94%29.77 "HgN/A
10:30 PM72 °FPartly cloudy.20 mph88%29.77 "HgN/A
10:00 PM72 °FPartly cloudy.18 mph88%29.80 "HgN/A
9:30 PM72 °FPassing clouds.20 mph88%29.80 "HgN/A
9:00 PM72 °FPassing clouds.20 mph88%29.80 "HgN/A
8:30 PM73 °FPassing clouds.21 mph83%29.80 "HgN/A
8:00 PM72 °FPassing clouds.20 mph88%29.80 "HgN/A
7:30 PM72 °FPartly cloudy.17 mph88%29.80 "HgN/A
7:00 PM72 °FPartly cloudy.18 mph88%29.80 "HgN/A
Weather by CustomWeather, © 2016

See weather overviewHow to use our weather pages